Location: Brusselsch Zeekanaal
(50.8667°N, 4.3667°E)
Time: 02:19:04
(UTC+00:00)

CENTAUR R/B - Pass Details

Date: 08 November 2025
Orbit: 633 x 1547 km, 63.4° (Epoch: 13 December)

Event Time Altitude Azimuth Distance (km) Brightness Sun altitude
Exits shadow 05:39:23 - 315° (NW) 3,387 4.8 -10.8°
Reaches altitude 10° 05:40:04 10° 316° (NW) 3,163 4.7 -10.7°
Maximum altitude 05:47:55 65° 39° (NE) 1,515 3.6 -9.5°
Drops below altitude 10° 05:57:06 10° 120° (ESE) 3,683 7.0 -8.1°
Sets 06:00:18 0° 123° (ESE) 4,697 7.8 -7.6°
